Time,TemperatureF,DewpointF,PressureIn,WindDirection,WindDirectionDegrees,WindSpeedMPH,WindSpeedGustMPH,Humidity,HourlyPrecipIn,Conditions,Clouds,dailyrainin,SoftwareType,DateUTC
2013-03-08 00:02:00,15.6,11.1,30.16,East,100,0.0,0.0,82,0.00,,,0.00,VWS V14.01,2013-03-08 07:02:00,
2013-03-08 00:07:00,15.2,10.4,30.16,East,100,0.0,0.0,81,0.00,,,0.00,VWS V14.01,2013-03-08 07:07:00,
2013-03-08 00:12:00,15.2,10.7,30.16,East,100,0.0,0.0,82,0.00,,,0.00,VWS V14.01,2013-03-08 07:12:00,
2013-03-08 00:17:00,15.1,10.6,30.13,East,100,0.0,0.0,82,0.00,,,0.00,VWS V14.01,2013-03-08 07:17:00,
2013-03-08 00:22:00,15.4,11.7,30.13,NE,35,0.0,0.0,85,0.00,,,0.00,VWS V14.01,2013-03-08 07:22:00,
2013-03-08 00:27:00,16.4,12.7,30.13,NE,35,0.0,0.0,85,0.00,,,0.00,VWS V14.01,2013-03-08 07:27:00,
2013-03-08 00:32:00,17.0,13.3,30.12,NE,35,0.0,0.0,85,0.00,,,0.00,VWS V14.01,2013-03-08 07:32:00,
2013-03-08 00:37:00,17.5,13.5,30.12,NNE,19,0.0,0.0,84,0.00,,,0.00,VWS V14.01,2013-03-08 07:37:00,
2013-03-08 00:42:00,17.8,13.8,30.12,NNE,19,0.0,0.0,84,0.00,,,0.00,VWS V14.01,2013-03-08 07:42:00,
2013-03-08 00:47:00,18.0,14.0,30.11,NNE,19,0.0,0.0,84,0.00,,,0.00,VWS V14.01,2013-03-08 07:47:00,
2013-03-08 00:52:00,18.1,14.1,30.11,North,358,0.0,1.0,84,0.00,,,0.00,VWS V14.01,2013-03-08 07:52:00,
2013-03-08 00:57:00,18.3,14.3,30.11,North,358,0.0,1.0,84,0.00,,,0.00,VWS V14.01,2013-03-08 07:57:00,
2013-03-08 01:02:00,18.4,14.4,30.11,North,358,0.0,0.0,84,0.00,,,0.00,VWS V14.01,2013-03-08 08:02:00,
2013-03-08 01:07:00,18.6,14.6,30.11,NNW,341,0.0,0.0,84,0.00,,,0.00,VWS V14.01,2013-03-08 08:07:00,
2013-03-08 01:12:00,19.1,15.3,30.11,North,356,0.0,0.0,85,0.00,,,0.00,VWS V14.01,2013-03-08 08:12:00,
2013-03-08 01:17:00,19.2,15.2,30.10,North,356,0.0,0.0,84,0.00,,,0.00,VWS V14.01,2013-03-08 08:17:00,
2013-03-08 01:22:00,19.1,14.5,30.10,North,356,0.0,0.0,82,0.00,,,0.00,VWS V14.01,2013-03-08 08:22:00,
2013-03-08 01:27:00,18.4,13.6,30.10,North,356,0.0,0.0,81,0.00,,,0.00,VWS V14.01,2013-03-08 08:27:00,
2013-03-08 01:32:00,18.3,13.7,30.11,North,356,0.0,0.0,82,0.00,,,0.00,VWS V14.01,2013-03-08 08:32:00,
2013-03-08 01:37:00,18.3,14.0,30.11,North,356,0.0,0.0,83,0.00,,,0.00,VWS V14.01,2013-03-08 08:37:00,
2013-03-08 01:42:00,18.3,14.0,30.11,North,356,0.0,0.0,83,0.00,,,0.00,VWS V14.01,2013-03-08 08:42:00,
2013-03-08 01:47:00,18.3,14.3,30.11,North,356,0.0,0.0,84,0.00,,,0.00,VWS V14.01,2013-03-08 08:47:00,
2013-03-08 01:52:00,18.6,14.9,30.11,North,356,0.0,0.0,85,0.00,,,0.00,VWS V14.01,2013-03-08 08:52:00,
2013-03-08 01:57:00,18.4,14.4,30.11,North,356,0.0,0.0,84,0.00,,,0.00,VWS V14.01,2013-03-08 08:57:00,
2013-03-08 02:02:00,18.4,14.4,30.10,North,356,0.0,0.0,84,0.00,,,0.00,VWS V14.01,2013-03-08 09:02:00,
2013-03-08 02:07:00,18.4,14.4,30.10,North,356,0.0,0.0,84,0.00,,,0.00,VWS V14.01,2013-03-08 09:07:00,
2013-03-08 02:12:00,18.3,14.3,30.10,North,356,0.0,0.0,84,0.00,,,0.00,VWS V14.01,2013-03-08 09:12:00,
2013-03-08 02:17:00,18.1,13.8,30.10,North,356,0.0,0.0,83,0.00,,,0.00,VWS V14.01,2013-03-08 09:17:00,
2013-03-08 02:22:00,18.1,14.4,30.10,NE,53,0.0,0.0,85,0.00,,,0.00,VWS V14.01,2013-03-08 09:22:00,
2013-03-08 02:27:00,18.6,14.9,30.10,NE,53,0.0,0.0,85,0.00,,,0.00,VWS V14.01,2013-03-08 09:27:00,
2013-03-08 02:32:00,18.9,15.4,30.09,NE,53,0.0,0.0,86,0.00,,,0.00,VWS V14.01,2013-03-08 09:32:00,
2013-03-08 02:37:00,19.2,15.7,30.09,NE,53,0.0,0.0,86,0.00,,,0.00,VWS V14.01,2013-03-08 09:37:00,
2013-03-08 02:42:00,19.5,16.0,30.09,NE,53,0.0,0.0,86,0.00,,,0.00,VWS V14.01,2013-03-08 09:42:00,
2013-03-08 02:47:00,19.9,16.7,30.08,NE,53,0.0,0.0,87,0.00,,,0.00,VWS V14.01,2013-03-08 09:47:00,
2013-03-08 02:52:00,19.9,16.4,30.08,NE,53,0.0,0.0,86,0.00,,,0.00,VWS V14.01,2013-03-08 09:52:00,
2013-03-08 02:57:00,20.3,17.1,30.08,NNE,19,0.0,0.0,87,0.00,,,0.00,VWS V14.01,2013-03-08 09:57:00,
2013-03-08 03:02:00,20.5,17.0,30.07,NNE,19,0.0,0.0,86,0.00,,,0.00,VWS V14.01,2013-03-08 10:02:00,
2013-03-08 03:07:00,20.2,16.7,30.07,NNE,19,0.0,0.0,86,0.00,,,0.00,VWS V14.01,2013-03-08 10:07:00,
2013-03-08 03:12:00,20.0,16.2,30.07,NNE,19,0.0,0.0,85,0.00,,,0.00,VWS V14.01,2013-03-08 10:12:00,
2013-03-08 03:17:00,19.9,16.1,30.07,NNE,19,0.0,0.0,85,0.00,,,0.00,VWS V14.01,2013-03-08 10:17:00,
2013-03-08 03:22:00,19.9,16.4,30.07,NNE,19,0.0,0.0,86,0.00,,,0.00,VWS V14.01,2013-03-08 10:22:00,
2013-03-08 03:27:00,19.9,16.4,30.07,NNE,19,0.0,0.0,86,0.00,,,0.00,VWS V14.01,2013-03-08 10:27:00,
2013-03-08 03:32:00,20.0,16.5,30.07,NNE,19,0.0,0.0,86,0.00,,,0.00,VWS V14.01,2013-03-08 10:32:00,
2013-03-08 03:37:00,20.2,17.0,30.07,NNE,19,0.0,0.0,87,0.00,,,0.00,VWS V14.01,2013-03-08 10:37:00,
2013-03-08 03:42:00,20.3,17.1,30.07,NNE,19,0.0,0.0,87,0.00,,,0.00,VWS V14.01,2013-03-08 10:42:00,
2013-03-08 03:47:00,20.8,17.8,30.06,NNE,19,0.0,0.0,88,0.00,,,0.00,VWS V14.01,2013-03-08 10:47:00,
2013-03-08 03:52:00,21.3,18.3,30.06,NNE,19,0.0,0.0,88,0.00,,,0.00,VWS V14.01,2013-03-08 10:52:00,
2013-03-08 03:57:00,21.6,18.6,30.06,NNE,19,0.0,0.0,88,0.00,,,0.00,VWS V14.01,2013-03-08 10:57:00,
2013-03-08 04:02:00,21.3,17.8,30.05,NNE,19,0.0,0.0,86,0.00,,,0.00,VWS V14.01,2013-03-08 11:02:00,
2013-03-08 04:07:00,20.5,16.4,30.05,NNE,19,0.0,0.0,84,0.00,,,0.00,VWS V14.01,2013-03-08 11:07:00,
2013-03-08 04:12:00,20.3,16.8,30.05,NNE,19,0.0,0.0,86,0.00,,,0.00,VWS V14.01,2013-03-08 11:12:00,
2013-03-08 04:17:00,20.5,17.2,30.07,North,0,0.0,0.0,87,0.00,,,0.00,VWS V14.01,2013-03-08 11:17:00,
2013-03-08 04:22:00,21.0,18.0,30.07,North,0,0.0,0.0,88,0.00,,,0.00,VWS V14.01,2013-03-08 11:22:00,
2013-03-08 04:27:00,21.3,18.0,30.07,North,356,0.0,0.0,87,0.00,,,0.00,VWS V14.01,2013-03-08 11:27:00,
2013-03-08 04:32:00,21.4,18.1,30.07,North,356,0.0,0.0,87,0.00,,,0.00,VWS V14.01,2013-03-08 11:32:00,
2013-03-08 04:37:00,21.4,18.1,30.07,North,356,0.0,0.0,87,0.00,,,0.00,VWS V14.01,2013-03-08 11:37:00,
2013-03-08 04:42:00,21.1,17.3,30.07,North,356,0.0,0.0,85,0.00,,,0.00,VWS V14.01,2013-03-08 11:42:00,
2013-03-08 04:47:00,21.3,18.0,30.07,North,356,0.0,0.0,87,0.00,,,0.00,VWS V14.01,2013-03-08 11:47:00,
2013-03-08 04:52:00,21.9,18.9,30.07,North,355,0.0,0.0,88,0.00,,,0.00,VWS V14.01,2013-03-08 11:52:00,
2013-03-08 04:57:00,22.2,18.9,30.07,North,355,0.0,0.0,87,0.00,,,0.00,VWS V14.01,2013-03-08 11:57:00,
2013-03-08 05:02:00,22.1,18.3,30.06,North,356,0.0,0.0,85,0.00,,,0.00,VWS V14.01,2013-03-08 12:02:00,
2013-03-08 05:07:00,21.9,18.4,30.06,North,355,0.0,0.0,86,0.00,,,0.00,VWS V14.01,2013-03-08 12:07:00,
2013-03-08 05:12:00,21.9,18.4,30.06,North,355,0.0,0.0,86,0.00,,,0.00,VWS V14.01,2013-03-08 12:12:00,
2013-03-08 05:17:00,21.9,18.4,30.08,North,356,0.0,0.0,86,0.00,,,0.00,VWS V14.01,2013-03-08 12:17:00,
2013-03-08 05:22:00,21.9,18.4,30.08,North,355,0.0,0.0,86,0.00,,,0.00,VWS V14.01,2013-03-08 12:22:00,
2013-03-08 05:27:00,22.2,18.7,30.08,North,355,0.0,0.0,86,0.00,,,0.00,VWS V14.01,2013-03-08 12:27:00,
2013-03-08 05:32:00,22.4,18.9,30.08,North,355,0.0,0.0,86,0.00,,,0.00,VWS V14.01,2013-03-08 12:32:00,
2013-03-08 05:37:00,22.9,19.4,30.08,North,355,0.0,0.0,86,0.00,,,0.00,VWS V14.01,2013-03-08 12:37:00,
2013-03-08 05:42:00,23.2,19.4,30.08,North,354,0.0,0.0,85,0.00,,,0.00,VWS V14.01,2013-03-08 12:42:00,
2013-03-08 05:47:00,23.6,19.5,30.07,North,354,0.0,0.0,84,0.00,,,0.00,VWS V14.01,2013-03-08 12:47:00,
2013-03-08 05:52:00,24.2,19.8,30.07,North,354,0.0,0.0,83,0.00,,,0.00,VWS V14.01,2013-03-08 12:52:00,
2013-03-08 05:57:00,24.5,19.8,30.07,NW,314,0.0,0.0,82,0.00,,,0.00,VWS V14.01,2013-03-08 12:57:00,
2013-03-08 06:02:00,25.1,20.1,30.06,NNW,346,0.0,0.0,81,0.00,,,0.00,VWS V14.01,2013-03-08 13:02:00,
2013-03-08 06:07:00,25.7,20.4,30.06,NNW,345,0.0,0.0,80,0.00,,,0.00,VWS V14.01,2013-03-08 13:07:00,
2013-03-08 06:12:00,26.3,20.4,30.06,NNW,345,0.0,0.0,78,0.00,,,0.00,VWS V14.01,2013-03-08 13:12:00,
2013-03-08 06:17:00,26.7,20.5,30.06,NNW,345,0.0,0.0,77,0.00,,,0.00,VWS V14.01,2013-03-08 13:17:00,
2013-03-08 06:22:00,27.2,20.3,30.06,NNW,346,0.0,0.0,75,0.00,,,0.00,VWS V14.01,2013-03-08 13:22:00,
2013-03-08 06:27:00,27.2,20.0,30.06,NNW,341,0.0,0.0,74,0.00,,,0.00,VWS V14.01,2013-03-08 13:27:00,
2013-03-08 06:32:00,27.0,19.8,30.06,NNW,341,0.0,0.0,74,0.00,,,0.00,VWS V14.01,2013-03-08 13:32:00,
2013-03-08 06:37:00,27.0,19.8,30.06,NNW,341,0.0,0.0,74,0.00,,,0.00,VWS V14.01,2013-03-08 13:37:00,
2013-03-08 06:42:00,26.6,19.8,30.06,NNW,341,0.0,0.0,75,0.00,,,0.00,VWS V14.01,2013-03-08 13:42:00,
2013-03-08 06:47:00,26.1,19.6,30.06,NNW,341,0.0,0.0,76,0.00,,,0.00,VWS V14.01,2013-03-08 13:47:00,
2013-03-08 06:52:00,25.8,19.6,30.06,NNW,341,0.0,0.0,77,0.00,,,0.00,VWS V14.01,2013-03-08 13:52:00,
2013-03-08 06:57:00,25.6,19.7,30.06,NNW,341,0.0,0.0,78,0.00,,,0.00,VWS V14.01,2013-03-08 13:57:00,
2013-03-08 07:02:00,25.3,19.4,30.06,NNW,341,0.0,0.0,78,0.00,,,0.00,VWS V14.01,2013-03-08 14:02:00,
2013-03-08 07:07:00,25.1,19.8,30.06,NNW,341,0.0,0.0,80,0.00,,,0.00,VWS V14.01,2013-03-08 14:07:00,
2013-03-08 07:12:00,25.3,20.0,30.06,NNW,341,0.0,0.0,80,0.00,,,0.00,VWS V14.01,2013-03-08 14:12:00,
2013-03-08 07:17:00,25.3,19.7,30.08,NNW,341,0.0,0.0,79,0.00,,,0.00,VWS V14.01,2013-03-08 14:17:00,
2013-03-08 07:22:00,25.6,20.0,30.08,NNW,341,0.0,0.0,79,0.00,,,0.00,VWS V14.01,2013-03-08 14:22:00,
2013-03-08 07:27:00,26.3,19.8,30.08,NNW,341,0.0,0.0,76,0.00,,,0.00,VWS V14.01,2013-03-08 14:27:00,
2013-03-08 07:32:00,27.0,19.8,30.07,NNW,341,0.0,0.0,74,0.00,,,0.00,VWS V14.01,2013-03-08 14:32:00,
2013-03-08 07:37:00,27.3,20.1,30.07,NNW,341,0.0,0.0,74,0.00,,,0.00,VWS V14.01,2013-03-08 14:37:00,
2013-03-08 07:42:00,27.6,19.8,30.07,NNW,340,0.0,1.0,72,0.00,,,0.00,VWS V14.01,2013-03-08 14:42:00,
2013-03-08 07:47:00,27.6,20.4,30.06,NNW,340,0.0,1.0,74,0.00,,,0.00,VWS V14.01,2013-03-08 14:47:00,
2013-03-08 07:52:00,27.8,19.6,30.06,North,0,0.0,1.0,71,0.00,,,0.00,VWS V14.01,2013-03-08 14:52:00,
2013-03-08 07:57:00,28.4,19.2,30.06,NW,314,0.0,1.0,68,0.00,,,0.00,VWS V14.01,2013-03-08 14:57:00,
2013-03-08 08:02:00,28.7,19.5,30.06,NW,304,0.0,0.0,68,0.00,,,0.00,VWS V14.01,2013-03-08 15:02:00,
2013-03-08 08:06:00,29.0,19.8,30.06,NW,304,0.0,0.0,68,0.00,,,0.00,VWS V14.01,2013-03-08 15:06:00,
2013-03-08 08:11:00,29.1,19.9,30.06,NW,304,0.0,0.0,68,0.00,,,0.00,VWS V14.01,2013-03-08 15:11:00,
2013-03-08 08:16:00,29.1,20.5,30.06,NW,304,0.0,0.0,70,0.00,,,0.00,VWS V14.01,2013-03-08 15:16:00,
2013-03-08 08:21:00,29.1,19.9,30.06,NW,305,0.0,0.0,68,0.00,,,0.00,VWS V14.01,2013-03-08 15:21:00,
2013-03-08 08:26:00,29.3,19.7,30.06,NW,315,0.0,0.0,67,0.00,,,0.00,VWS V14.01,2013-03-08 15:26:00,
2013-03-08 08:31:00,29.4,20.2,30.06,NW,315,0.0,0.0,68,0.00,,,0.00,VWS V14.01,2013-03-08 15:31:00,
2013-03-08 08:36:00,29.5,20.3,30.06,NW,315,0.0,0.0,68,0.00,,,0.00,VWS V14.01,2013-03-08 15:36:00,
2013-03-08 08:41:00,29.5,20.3,30.06,NW,315,0.0,0.0,68,0.00,,,0.00,VWS V14.01,2013-03-08 15:41:00,
2013-03-08 08:46:00,29.5,20.3,30.06,NW,317,0.0,0.0,68,0.00,,,0.00,VWS V14.01,2013-03-08 15:46:00,
2013-03-08 08:51:00,29.7,20.5,30.06,NW,317,0.0,0.0,68,0.00,,,0.00,VWS V14.01,2013-03-08 15:51:00,
2013-03-08 08:56:00,29.7,20.5,30.06,WNW,303,0.0,0.0,68,0.00,,,0.00,VWS V14.01,2013-03-08 15:56:00,
2013-03-08 09:01:00,29.7,20.5,30.07,NW,304,0.0,0.0,68,0.00,,,0.00,VWS V14.01,2013-03-08 16:01:00,
2013-03-08 09:06:00,29.7,19.8,30.07,NW,305,0.0,0.0,66,0.00,,,0.00,VWS V14.01,2013-03-08 16:06:00,
2013-03-08 09:11:00,30.0,20.0,30.07,NW,305,0.0,0.0,66,0.00,,,0.00,VWS V14.01,2013-03-08 16:11:00,
2013-03-08 09:16:00,30.0,20.0,30.07,WNW,302,0.0,0.0,66,0.00,,,0.00,VWS V14.01,2013-03-08 16:16:00,
2013-03-08 09:21:00,30.1,19.8,30.07,WNW,303,0.0,0.0,65,0.00,,,0.00,VWS V14.01,2013-03-08 16:21:00,
2013-03-08 09:26:00,30.1,20.1,30.07,WNW,303,0.0,0.0,66,0.00,,,0.00,VWS V14.01,2013-03-08 16:26:00,
2013-03-08 09:31:00,30.4,19.7,30.07,WNW,303,0.0,0.0,64,0.00,,FEW004,0.00,VWS V14.01,2013-03-08 16:31:00,
2013-03-08 09:36:00,30.4,19.3,30.07,WNW,303,0.0,0.0,63,0.00,,FEW004,0.00,VWS V14.01,2013-03-08 16:36:00,
2013-03-08 09:41:00,30.6,18.0,30.07,NW,319,0.0,1.0,59,0.00,,FEW004,0.00,VWS V14.01,2013-03-08 16:41:00,
2013-03-08 09:46:00,30.9,19.0,30.06,NW,319,0.0,1.0,61,0.00,,FEW004,0.00,VWS V14.01,2013-03-08 16:46:00,
2013-03-08 09:51:00,31.2,19.3,30.06,NW,318,0.0,1.0,61,0.00,,FEW004,0.00,VWS V14.01,2013-03-08 16:51:00,
2013-03-08 09:56:00,31.3,19.0,30.06,NW,318,0.0,1.0,60,0.00,,FEW004,0.00,VWS V14.01,2013-03-08 16:56:00,
2013-03-08 10:01:00,31.6,17.7,30.05,NW,318,0.0,0.0,56,0.00,,FEW004,0.00,VWS V14.01,2013-03-08 17:01:00,
2013-03-08 10:06:00,32.1,18.6,30.05,NW,314,0.0,0.0,57,0.00,,FEW004,0.00,VWS V14.01,2013-03-08 17:06:00,
2013-03-08 10:11:00,32.5,16.4,30.05,NW,322,0.0,0.0,51,0.00,,FEW004,0.00,VWS V14.01,2013-03-08 17:11:00,
2013-03-08 10:16:00,32.9,15.9,30.06,NW,304,0.0,1.0,49,0.00,,FEW004,0.00,VWS V14.01,2013-03-08 17:16:00,
2013-03-08 10:21:00,33.1,17.8,30.06,NW,312,0.0,1.0,53,0.00,,FEW004,0.00,VWS V14.01,2013-03-08 17:21:00,
2013-03-08 10:26:00,33.2,15.6,30.06,WNW,301,0.0,1.0,48,0.00,,FEW004,0.00,VWS V14.01,2013-03-08 17:26:00,
2013-03-08 10:31:00,33.5,13.9,30.06,WNW,295,0.0,0.0,44,0.00,,SCT180,0.00,VWS V14.01,2013-03-08 17:31:00,
2013-03-08 10:36:00,33.8,13.7,30.06,WNW,302,0.0,0.0,43,0.00,,SCT180,0.00,VWS V14.01,2013-03-08 17:36:00,
2013-03-08 10:41:00,34.0,12.8,30.06,NW,309,0.0,0.0,41,0.00,,SCT180,0.00,VWS V14.01,2013-03-08 17:41:00,
2013-03-08 10:46:00,34.1,13.4,30.05,NNW,330,0.0,0.0,42,0.00,,SCT180,0.00,VWS V14.01,2013-03-08 17:46:00,
2013-03-08 10:51:00,34.9,14.7,30.05,NW,325,0.0,1.0,43,0.00,,SCT180,0.00,VWS V14.01,2013-03-08 17:51:00,
2013-03-08 10:56:00,35.3,13.4,30.05,NW,308,0.0,2.0,40,0.00,,SCT180,0.00,VWS V14.01,2013-03-08 17:56:00,
2013-03-08 11:01:00,35.6,13.7,30.04,WNW,300,0.0,0.0,40,0.00,,SCT180,0.00,VWS V14.01,2013-03-08 18:01:00,
2013-03-08 11:06:00,35.8,12.7,30.04,NW,311,1.0,1.0,38,0.00,,SCT180,0.00,VWS V14.01,2013-03-08 18:06:00,
2013-03-08 11:11:00,35.9,14.5,30.04,NE,42,0.0,2.0,41,0.00,,SCT180,0.00,VWS V14.01,2013-03-08 18:11:00,
2013-03-08 11:16:00,36.3,13.7,30.05,NW,320,0.0,2.0,39,0.00,,SCT180,0.00,VWS V14.01,2013-03-08 18:16:00,
2013-03-08 11:21:00,36.8,15.3,30.05,NW,307,0.0,2.0,41,0.00,,SCT180,0.00,VWS V14.01,2013-03-08 18:21:00,
2013-03-08 11:26:00,36.6,13.4,30.05,WNW,301,0.0,2.0,38,0.00,,SCT180,0.00,VWS V14.01,2013-03-08 18:26:00,
2013-03-08 11:31:00,36.5,13.9,30.03,NW,304,0.0,0.0,39,0.00,,FEW170,0.00,VWS V14.01,2013-03-08 18:31:00,
2013-03-08 11:36:00,36.9,13.7,30.03,NNW,329,0.0,1.0,38,0.00,,FEW170,0.00,VWS V14.01,2013-03-08 18:36:00,
2013-03-08 11:41:00,37.5,13.6,30.03,NNW,329,0.0,1.0,37,0.00,,FEW170,0.00,VWS V14.01,2013-03-08 18:41:00,
2013-03-08 11:46:00,37.6,12.4,30.03,NW,309,0.0,1.0,35,0.00,,FEW170,0.00,VWS V14.01,2013-03-08 18:46:00,
2013-03-08 11:51:00,37.9,12.7,30.03,NNW,333,0.0,1.0,35,0.00,,FEW170,0.00,VWS V14.01,2013-03-08 18:51:00,
2013-03-08 11:56:00,37.6,13.7,30.03,WNW,301,0.0,1.0,37,0.00,,FEW170,0.00,VWS V14.01,2013-03-08 18:56:00,
2013-03-08 12:01:00,37.6,14.3,30.03,NW,312,0.0,0.0,38,0.00,,FEW170,0.00,VWS V14.01,2013-03-08 19:01:00,
2013-03-08 12:06:00,37.9,14.6,30.03,WNW,302,0.0,0.0,38,0.00,,FEW170,0.00,VWS V14.01,2013-03-08 19:06:00,
2013-03-08 12:11:00,37.8,12.6,30.03,ESE,105,0.0,1.0,35,0.00,,FEW170,0.00,VWS V14.01,2013-03-08 19:11:00,
2013-03-08 12:16:00,37.8,13.9,30.01,NNW,328,1.0,1.0,37,0.00,,FEW170,0.00,VWS V14.01,2013-03-08 19:16:00,
2013-03-08 12:21:00,37.9,13.4,30.01,NW,314,0.0,1.0,36,0.00,,FEW170,0.00,VWS V14.01,2013-03-08 19:21:00,
2013-03-08 12:26:00,38.3,13.1,30.01,NW,307,0.0,1.0,35,0.00,,FEW170,0.00,VWS V14.01,2013-03-08 19:26:00,
2013-03-08 12:31:00,39.1,14.4,30.01,NW,311,0.0,0.0,36,0.00,,FEW170,0.00,VWS V14.01,2013-03-08 19:31:00,
2013-03-08 12:36:00,39.3,13.9,30.01,WNW,300,0.0,1.0,35,0.00,,FEW170,0.00,VWS V14.01,2013-03-08 19:36:00,
2013-03-08 12:41:00,39.2,12.5,30.01,North,353,0.0,1.0,33,0.00,,FEW170,0.00,VWS V14.01,2013-03-08 19:41:00,
2013-03-08 12:46:00,39.6,13.6,30.00,WNW,302,0.0,2.0,34,0.01,,FEW170,0.01,VWS V14.01,2013-03-08 19:46:00,
2013-03-08 12:51:00,39.5,13.5,30.00,NW,307,0.0,2.0,34,0.01,,FEW170,0.01,VWS V14.01,2013-03-08 19:51:00,
2013-03-08 12:56:00,38.9,13.6,30.00,NW,306,0.0,2.0,35,0.01,,FEW170,0.01,VWS V14.01,2013-03-08 19:56:00,
2013-03-08 13:01:00,38.8,12.9,30.01,NW,311,0.0,0.0,34,0.01,,FEW170,0.01,VWS V14.01,2013-03-08 20:01:00,
2013-03-08 13:06:00,38.5,13.2,30.01,WNW,300,0.0,1.0,35,0.01,,FEW170,0.01,VWS V14.01,2013-03-08 20:06:00,
2013-03-08 13:11:00,38.3,13.7,30.01,NW,304,0.0,1.0,36,0.01,,FEW170,0.01,VWS V14.01,2013-03-08 20:11:00,
2013-03-08 13:16:00,38.3,13.1,30.00,NW,304,0.0,1.0,35,0.01,,FEW170,0.01,VWS V14.01,2013-03-08 20:16:00,
2013-03-08 13:21:00,38.9,12.3,30.00,NW,319,0.0,1.0,33,0.01,,FEW170,0.01,VWS V14.01,2013-03-08 20:21:00,
2013-03-08 13:26:00,39.1,13.1,30.00,WNW,302,0.0,1.0,34,0.01,,FEW170,0.01,VWS V14.01,2013-03-08 20:26:00,
2013-03-08 13:31:00,38.9,12.9,30.00,NW,318,0.0,1.0,34,0.01,,FEW170,0.01,VWS V14.01,2013-03-08 20:31:00,
2013-03-08 13:36:00,38.5,13.9,30.00,NW,309,0.0,2.0,36,0.01,,FEW170,0.01,VWS V14.01,2013-03-08 20:36:00,
2013-03-08 13:41:00,38.2,13.6,30.00,NW,304,0.0,2.0,36,0.01,,FEW170,0.01,VWS V14.01,2013-03-08 20:41:00,
2013-03-08 13:46:00,37.9,14.0,29.99,WNW,291,0.0,2.0,37,0.01,,FEW170,0.01,VWS V14.01,2013-03-08 20:46:00,
2013-03-08 13:51:00,38.0,12.1,29.99,NNW,334,0.0,2.0,34,0.01,,FEW170,0.01,VWS V14.01,2013-03-08 20:51:00,
2013-03-08 13:56:00,38.0,11.5,29.99,NW,312,0.0,2.0,33,0.01,,FEW170,0.01,VWS V14.01,2013-03-08 20:56:00,
2013-03-08 14:01:00,38.2,10.9,29.99,NW,316,0.0,0.0,32,0.00,,FEW170,0.01,VWS V14.01,2013-03-08 21:01:00,
2013-03-08 14:06:00,38.2,13.0,29.99,NW,304,0.0,2.0,35,0.00,,FEW170,0.01,VWS V14.01,2013-03-08 21:06:00,
2013-03-08 14:11:00,38.0,12.8,29.99,NW,305,0.0,2.0,35,0.00,,FEW170,0.01,VWS V14.01,2013-03-08 21:11:00,
2013-03-08 14:16:00,37.8,12.6,29.98,NNW,327,0.0,2.0,35,0.00,,FEW170,0.01,VWS V14.01,2013-03-08 21:16:00,
2013-03-08 14:21:00,37.8,12.6,29.98,NW,321,0.0,2.0,35,0.00,,FEW170,0.01,VWS V14.01,2013-03-08 21:21:00,
2013-03-08 14:26:00,38.6,12.7,29.98,NW,309,0.0,2.0,34,0.00,,FEW170,0.01,VWS V14.01,2013-03-08 21:26:00,
2013-03-08 14:31:00,38.8,13.5,29.97,NW,314,0.0,0.0,35,0.00,,FEW170,0.01,VWS V14.01,2013-03-08 21:31:00,
2013-03-08 14:36:00,38.8,13.5,29.97,NNW,335,0.0,1.0,35,0.00,,FEW170,0.01,VWS V14.01,2013-03-08 21:36:00,
2013-03-08 14:41:00,38.9,13.6,29.97,NNE,14,0.0,1.0,35,0.00,,FEW170,0.01,VWS V14.01,2013-03-08 21:41:00,
2013-03-08 14:46:00,39.3,12.6,29.97,NW,309,0.0,2.0,33,0.00,,FEW170,0.01,VWS V14.01,2013-03-08 21:46:00,
2013-03-08 14:51:00,38.9,13.6,29.97,North,358,0.0,2.0,35,0.00,,FEW170,0.01,VWS V14.01,2013-03-08 21:51:00,
2013-03-08 14:56:00,38.3,13.1,29.97,NW,311,0.0,2.0,35,0.00,,FEW170,0.01,VWS V14.01,2013-03-08 21:56:00,
2013-03-08 15:01:00,38.5,13.9,29.98,NW,315,0.0,1.0,36,0.00,,FEW170,0.01,VWS V14.01,2013-03-08 22:01:00,
2013-03-08 15:06:00,39.1,13.8,29.98,ESE,104,0.0,4.0,35,0.00,,FEW170,0.01,VWS V14.01,2013-03-08 22:06:00,
2013-03-08 15:11:00,39.3,13.9,29.98,SE,132,0.0,4.0,35,0.00,,FEW170,0.01,VWS V14.01,2013-03-08 22:11:00,
2013-03-08 15:16:00,39.5,14.8,29.96,NW,305,0.0,4.0,36,0.00,,FEW170,0.01,VWS V14.01,2013-03-08 22:16:00,
2013-03-08 15:21:00,39.1,14.4,29.96,ESE,122,0.0,4.0,36,0.00,,FEW170,0.01,VWS V14.01,2013-03-08 22:21:00,
2013-03-08 15:26:00,38.8,13.5,29.96,WNW,303,0.0,4.0,35,0.00,,FEW170,0.01,VWS V14.01,2013-03-08 22:26:00,
2013-03-08 15:31:00,38.2,13.6,29.97,NW,306,0.0,1.0,36,0.00,,FEW170,0.01,VWS V14.01,2013-03-08 22:31:00,
2013-03-08 15:36:00,37.9,14.0,29.97,WNW,299,0.0,1.0,37,0.00,,FEW170,0.01,VWS V14.01,2013-03-08 22:36:00,
2013-03-08 15:41:00,37.5,12.4,29.97,NW,305,0.0,1.0,35,0.00,,FEW170,0.01,VWS V14.01,2013-03-08 22:41:00,
2013-03-08 15:46:00,37.3,14.6,29.99,NW,304,0.0,1.0,39,0.00,,FEW170,0.01,VWS V14.01,2013-03-08 22:46:00,
2013-03-08 15:51:00,37.0,13.8,29.99,WNW,297,0.0,1.0,38,0.00,,FEW170,0.01,VWS V14.01,2013-03-08 22:51:00,
2013-03-08 15:56:00,37.0,13.8,29.99,WNW,298,0.0,1.0,38,0.00,,FEW170,0.01,VWS V14.01,2013-03-08 22:56:00,
2013-03-08 16:01:00,37.0,13.2,29.99,NW,309,0.0,1.0,37,0.00,,FEW170,0.01,VWS V14.01,2013-03-08 23:01:00,
2013-03-08 16:06:00,37.0,11.9,29.99,NW,314,0.0,1.0,35,0.00,,FEW170,0.01,VWS V14.01,2013-03-08 23:06:00,
2013-03-08 16:11:00,37.2,13.9,29.99,WNW,300,0.0,1.0,38,0.00,,FEW170,0.01,VWS V14.01,2013-03-08 23:11:00,
2013-03-08 16:16:00,37.0,12.5,29.99,WNW,299,0.0,1.0,36,0.00,,FEW170,0.01,VWS V14.01,2013-03-08 23:16:00,
2013-03-08 16:21:00,36.9,11.8,29.99,WNW,302,0.0,2.0,35,0.00,,FEW170,0.01,VWS V14.01,2013-03-08 23:21:00,
2013-03-08 16:26:00,36.9,11.8,29.99,NW,309,0.0,2.0,35,0.00,,FEW170,0.01,VWS V14.01,2013-03-08 23:26:00,
2013-03-08 16:31:00,37.0,12.5,29.98,NW,310,0.0,0.0,36,0.00,,FEW170,0.01,VWS V14.01,2013-03-08 23:31:00,
2013-03-08 16:36:00,36.9,13.1,29.98,NW,321,0.0,5.0,37,0.00,,FEW170,0.01,VWS V14.01,2013-03-08 23:36:00,
2013-03-08 16:41:00,36.9,11.8,29.98,North,351,0.0,5.0,35,0.00,,FEW170,0.01,VWS V14.01,2013-03-08 23:41:00,
2013-03-08 16:46:00,36.8,13.0,29.98,North,351,0.0,5.0,37,0.00,,FEW170,0.01,VWS V14.01,2013-03-08 23:46:00,
2013-03-08 16:51:00,36.5,13.3,29.98,NW,324,0.0,5.0,38,0.00,,FEW170,0.01,VWS V14.01,2013-03-08 23:51:00,
2013-03-08 16:56:00,36.0,13.5,29.98,NNW,340,1.0,5.0,39,0.00,,FEW170,0.01,VWS V14.01,2013-03-08 23:56:00,
2013-03-08 17:01:00,36.0,12.3,29.98,NW,306,0.0,1.0,37,0.00,,FEW170,0.01,VWS V14.01,2013-03-09 00:01:00,
2013-03-08 17:06:00,35.8,13.3,29.98,NNW,332,0.0,1.0,39,0.00,,FEW170,0.01,VWS V14.01,2013-03-09 00:06:00,
2013-03-08 17:11:00,35.6,13.1,29.98,NW,311,0.0,1.0,39,0.00,,FEW170,0.01,VWS V14.01,2013-03-09 00:11:00,
2013-03-08 17:16:00,35.5,13.6,29.98,NNW,327,0.0,1.0,40,0.00,,FEW170,0.01,VWS V14.01,2013-03-09 00:16:00,
2013-03-08 17:21:00,35.2,13.9,29.98,NW,320,0.0,2.0,41,0.00,,FEW170,0.01,VWS V14.01,2013-03-09 00:21:00,
2013-03-08 17:26:00,35.0,13.1,29.98,NW,316,0.0,2.0,40,0.00,,FEW170,0.01,VWS V14.01,2013-03-09 00:26:00,
2013-03-08 17:31:00,35.0,12.6,29.97,NW,318,0.0,0.0,39,0.00,,FEW170,0.01,VWS V14.01,2013-03-09 00:31:00,
2013-03-08 17:36:00,34.9,13.6,29.97,NE,44,0.0,1.0,41,0.00,,FEW170,0.01,VWS V14.01,2013-03-09 00:36:00,
2013-03-08 17:41:00,34.7,14.0,29.97,NW,322,0.0,2.0,42,0.00,,FEW170,0.01,VWS V14.01,2013-03-09 00:41:00,
2013-03-08 17:46:00,34.6,14.4,29.98,NNW,347,0.0,2.0,43,0.00,,FEW170,0.01,VWS V14.01,2013-03-09 00:46:00,
2013-03-08 17:51:00,34.1,13.4,29.98,NNW,346,0.0,2.0,42,0.00,,FEW170,0.01,VWS V14.01,2013-03-09 00:51:00,
2013-03-08 17:56:00,34.0,12.8,29.98,NW,325,0.0,2.0,41,0.00,,FEW170,0.01,VWS V14.01,2013-03-09 00:56:00,
2013-03-08 18:01:00,34.1,13.4,30.00,NNW,340,0.0,0.0,42,0.00,,FEW170,0.01,VWS V14.01,2013-03-09 01:01:00,
2013-03-08 18:07:00,34.1,12.9,30.00,WNW,301,0.0,2.0,41,0.00,,FEW170,0.01,VWS V14.01,2013-03-09 01:07:00,
2013-03-08 18:12:00,34.3,13.1,30.00,NW,311,0.0,2.0,41,0.00,,FEW170,0.01,VWS V14.01,2013-03-09 01:12:00,
2013-03-08 18:16:00,34.3,11.9,30.00,NW,309,0.0,2.0,39,0.00,,FEW170,0.01,VWS V14.01,2013-03-09 01:16:00,
2013-03-08 18:21:00,34.6,12.8,30.00,North,355,0.0,2.0,40,0.00,,FEW170,0.01,VWS V14.01,2013-03-09 01:21:00,
2013-03-08 18:26:00,34.4,13.1,30.00,NW,326,0.0,6.0,41,0.00,,FEW170,0.01,VWS V14.01,2013-03-09 01:26:00,
2013-03-08 18:31:00,34.1,14.0,30.01,ENE,70,0.0,1.0,43,0.00,,SKC,0.01,VWS V14.01,2013-03-09 01:31:00,
2013-03-08 18:36:00,34.0,12.8,30.01,NW,326,0.0,2.0,41,0.00,,SKC,0.01,VWS V14.01,2013-03-09 01:36:00,
2013-03-08 18:41:00,34.0,13.9,30.01,NNW,329,0.0,2.0,43,0.00,,SKC,0.01,VWS V14.01,2013-03-09 01:41:00,
2013-03-08 18:46:00,34.0,12.2,30.01,NNE,20,0.0,5.0,40,0.00,,SKC,0.01,VWS V14.01,2013-03-09 01:46:00,
2013-03-08 18:51:00,34.0,12.8,30.01,North,0,0.0,5.0,41,0.00,,SKC,0.01,VWS V14.01,2013-03-09 01:51:00,
2013-03-08 18:56:00,34.1,12.3,30.01,NW,310,0.0,5.0,40,0.00,,SKC,0.01,VWS V14.01,2013-03-09 01:56:00,
2013-03-08 19:02:00,34.1,12.3,30.02,NW,322,0.0,1.0,40,0.00,,SKC,0.01,VWS V14.01,2013-03-09 02:02:00,
2013-03-08 19:07:00,34.0,13.3,30.02,ESE,122,0.0,2.0,42,0.00,,SKC,0.01,VWS V14.01,2013-03-09 02:07:00,
2013-03-08 19:12:00,33.7,13.6,30.02,North,358,0.0,2.0,43,0.00,,SKC,0.01,VWS V14.01,2013-03-09 02:12:00,
2013-03-08 19:17:00,33.5,12.3,30.00,NW,321,0.0,2.0,41,0.00,,SKC,0.01,VWS V14.01,2013-03-09 02:17:00,
2013-03-08 19:22:00,33.5,12.9,30.00,NW,307,0.0,2.0,42,0.00,,SKC,0.01,VWS V14.01,2013-03-09 02:22:00,
2013-03-08 19:27:00,33.4,14.4,30.00,NW,305,0.0,4.0,45,0.00,,SKC,0.01,VWS V14.01,2013-03-09 02:27:00,
2013-03-08 19:32:00,33.2,13.1,30.01,NW,304,0.0,1.0,43,0.00,,SKC,0.01,VWS V14.01,2013-03-09 02:32:00,
2013-03-08 19:37:00,32.9,13.4,30.01,NW,307,0.0,1.0,44,0.00,,SKC,0.01,VWS V14.01,2013-03-09 02:37:00,
2013-03-08 19:42:00,32.4,13.4,30.01,NW,307,0.0,1.0,45,0.00,,SKC,0.01,VWS V14.01,2013-03-09 02:42:00,
2013-03-08 19:47:00,31.8,13.9,30.03,NW,307,0.0,1.0,47,0.00,,SKC,0.01,VWS V14.01,2013-03-09 02:47:00,
2013-03-08 19:52:00,31.5,13.6,30.03,NW,307,0.0,1.0,47,0.00,,SKC,0.01,VWS V14.01,2013-03-09 02:52:00,
2013-03-08 19:57:00,31.3,14.8,30.03,NW,307,0.0,1.0,50,0.00,,SKC,0.01,VWS V14.01,2013-03-09 02:57:00,
2013-03-08 20:02:00,31.0,14.1,30.04,NW,307,0.0,0.0,49,0.00,,SKC,0.01,VWS V14.01,2013-03-09 03:02:00,
2013-03-08 20:07:00,30.7,14.3,30.04,NW,307,0.0,0.0,50,0.00,,SKC,0.01,VWS V14.01,2013-03-09 03:07:00,
2013-03-08 20:12:00,30.4,13.5,30.04,NW,307,0.0,0.0,49,0.00,,SKC,0.01,VWS V14.01,2013-03-09 03:12:00,
2013-03-08 20:17:00,30.4,14.4,30.04,NW,307,0.0,0.0,51,0.00,,SKC,0.01,VWS V14.01,2013-03-09 03:17:00,
2013-03-08 20:22:00,29.8,15.2,30.04,NW,307,0.0,0.0,54,0.00,,SKC,0.01,VWS V14.01,2013-03-09 03:22:00,
2013-03-08 20:27:00,29.4,14.4,30.04,NW,307,0.0,0.0,53,0.00,,SKC,0.01,VWS V14.01,2013-03-09 03:27:00,
2013-03-08 20:32:00,29.3,17.5,30.05,NW,307,0.0,0.0,61,0.00,,SKC,0.01,VWS V14.01,2013-03-09 03:32:00,
2013-03-08 20:37:00,29.0,17.2,30.05,NW,307,0.0,0.0,61,0.00,,SKC,0.01,VWS V14.01,2013-03-09 03:37:00,
2013-03-08 20:42:00,28.4,17.4,30.05,NW,307,0.0,0.0,63,0.00,,SKC,0.01,VWS V14.01,2013-03-09 03:42:00,
2013-03-08 20:47:00,27.9,17.3,30.06,NW,307,0.0,0.0,64,0.00,,SKC,0.01,VWS V14.01,2013-03-09 03:47:00,
2013-03-08 20:52:00,27.6,17.4,30.06,NW,307,0.0,0.0,65,0.00,,SKC,0.01,VWS V14.01,2013-03-09 03:52:00,
2013-03-08 20:57:00,27.5,17.3,30.06,NW,307,0.0,0.0,65,0.00,,SKC,0.01,VWS V14.01,2013-03-09 03:57:00,
2013-03-08 21:02:00,27.3,17.5,30.07,NW,307,0.0,0.0,66,0.00,,SKC,0.01,VWS V14.01,2013-03-09 04:02:00,
2013-03-08 21:07:00,27.5,17.6,30.07,NW,307,0.0,0.0,66,0.00,,SKC,0.01,VWS V14.01,2013-03-09 04:07:00,
2013-03-08 21:12:00,27.6,16.7,30.07,North,0,0.0,0.0,63,0.00,,SKC,0.01,VWS V14.01,2013-03-09 04:12:00,
2013-03-08 21:17:00,27.9,17.3,30.06,North,0,0.0,0.0,64,0.00,,SKC,0.01,VWS V14.01,2013-03-09 04:17:00,
2013-03-08 21:22:00,28.2,18.0,30.06,NE,37,0.0,0.0,65,0.00,,SKC,0.01,VWS V14.01,2013-03-09 04:22:00,
2013-03-08 21:27:00,28.4,16.7,30.06,NE,37,0.0,0.0,61,0.00,,SKC,0.01,VWS V14.01,2013-03-09 04:27:00,
2013-03-08 21:32:00,28.7,15.8,30.06,NNW,337,0.0,0.0,58,0.00,,SKC,0.01,VWS V14.01,2013-03-09 04:32:00,
2013-03-08 21:37:00,29.1,17.0,30.06,NNW,337,0.0,0.0,60,0.00,,SKC,0.01,VWS V14.01,2013-03-09 04:37:00,
2013-03-08 21:42:00,29.1,16.6,30.06,ENE,68,0.0,0.0,59,0.00,,SKC,0.01,VWS V14.01,2013-03-09 04:42:00,
2013-03-08 21:47:00,29.1,15.8,30.06,ENE,63,0.0,0.0,57,0.00,,SKC,0.01,VWS V14.01,2013-03-09 04:47:00,
2013-03-08 21:52:00,29.3,15.6,30.06,ENE,63,0.0,0.0,56,0.00,,SKC,0.01,VWS V14.01,2013-03-09 04:52:00,
2013-03-08 21:57:00,29.3,15.6,30.06,ENE,63,0.0,0.0,56,0.00,,SKC,0.01,VWS V14.01,2013-03-09 04:57:00,
2013-03-08 22:00:00,29.3,16.0,30.07,ENE,63,0.0,0.0,57,0.00,,SKC,0.01,VWS V14.01,2013-03-09 05:00:00,
2013-03-08 22:05:00,29.1,15.8,30.07,ENE,63,0.0,0.0,57,0.00,,SKC,0.01,VWS V14.01,2013-03-09 05:05:00,
2013-03-08 22:10:00,29.0,15.7,30.07,ENE,63,0.0,0.0,57,0.00,,SKC,0.01,VWS V14.01,2013-03-09 05:10:00,
2013-03-08 22:15:00,28.8,16.7,30.05,NE,49,1.0,1.0,60,0.00,,SKC,0.01,VWS V14.01,2013-03-09 05:15:00,
2013-03-08 22:20:00,28.8,15.5,30.05,North,10,0.0,1.0,57,0.00,,SKC,0.01,VWS V14.01,2013-03-09 05:20:00,
2013-03-08 22:25:00,28.8,15.5,30.05,North,10,0.0,1.0,57,0.00,,SKC,0.01,VWS V14.01,2013-03-09 05:25:00,
2013-03-08 22:30:00,28.8,15.9,30.05,NW,326,0.0,0.0,58,0.00,,SKC,0.01,VWS V14.01,2013-03-09 05:30:00,
2013-03-08 22:35:00,28.8,15.9,30.05,NW,326,0.0,0.0,58,0.00,,SKC,0.01,VWS V14.01,2013-03-09 05:35:00,
2013-03-08 22:40:00,29.0,16.1,30.05,NNW,342,0.0,0.0,58,0.00,,SKC,0.01,VWS V14.01,2013-03-09 05:40:00,
2013-03-08 22:45:00,28.8,15.9,30.06,NNW,342,0.0,0.0,58,0.00,,SKC,0.01,VWS V14.01,2013-03-09 05:45:00,
2013-03-08 22:50:00,28.7,15.8,30.06,NNW,343,0.0,0.0,58,0.00,,SKC,0.01,VWS V14.01,2013-03-09 05:50:00,
2013-03-08 22:55:00,28.8,15.9,30.06,NNW,344,0.0,0.0,58,0.00,,SKC,0.01,VWS V14.01,2013-03-09 05:55:00,
2013-03-08 23:00:00,28.8,15.5,30.05,NNW,343,0.0,0.0,57,0.00,,SKC,0.01,VWS V14.01,2013-03-09 06:00:00,
2013-03-08 23:05:00,29.0,16.1,30.05,NNW,343,0.0,0.0,58,0.00,,SKC,0.01,VWS V14.01,2013-03-09 06:05:00,
2013-03-08 23:10:00,28.8,16.3,30.05,NNW,343,0.0,0.0,59,0.00,,SKC,0.01,VWS V14.01,2013-03-09 06:10:00,
2013-03-08 23:15:00,28.7,16.6,30.05,NNW,343,0.0,0.0,60,0.00,,SKC,0.01,VWS V14.01,2013-03-09 06:15:00,
2013-03-08 23:20:00,28.4,15.9,30.05,NNW,343,0.0,0.0,59,0.00,,SKC,0.01,VWS V14.01,2013-03-09 06:20:00,
2013-03-08 23:25:00,28.2,15.7,30.05,NNW,343,0.0,0.0,59,0.00,,SKC,0.01,VWS V14.01,2013-03-09 06:25:00,
2013-03-08 23:30:00,28.2,15.7,30.05,NNW,343,0.0,0.0,59,0.00,,SKC,0.01,VWS V14.01,2013-03-09 06:30:00,
2013-03-08 23:35:00,28.2,15.7,30.05,WNW,295,0.0,1.0,59,0.00,,FEW250,0.01,VWS V14.01,2013-03-09 06:35:00,
2013-03-08 23:40:00,28.2,15.7,30.05,NW,325,0.0,1.0,59,0.00,,FEW250,0.01,VWS V14.01,2013-03-09 06:40:00,
2013-03-08 23:45:00,28.1,16.0,30.05,NW,325,0.0,1.0,60,0.00,,FEW250,0.01,VWS V14.01,2013-03-09 06:45:00,
2013-03-08 23:50:00,27.9,16.6,30.05,NW,326,0.0,1.0,62,0.00,,FEW250,0.01,VWS V14.01,2013-03-09 06:50:00,
2013-03-08 23:55:00,27.8,16.5,30.05,NW,326,0.0,1.0,62,0.00,,FEW250,0.01,VWS V14.01,2013-03-09 06:55:00,